Vorticity
23 15 21 21 25 17 30 27 26 29 24 14 18 10 26 10 36 4 -6 35 -6 -38 31 -8 18 23 29 2 26 25 2 8 8 3 -6 9 21 14 17 13 -12 20 -10 20 13 9 19 4 11 -4 -8 3 10 13
17 20 19 27 15 60 26 24 23 27 15 12 10 28 5 28 26 4 4 29 10 -21 13 12 -1 6 11 13 17 8 10 32 -30 -15 -6 5 4 19 0 -1 32 -2 -8 5 -11 4 1 -8 16 23 -0 -3 4 26
14 9 31 34 15 20 13 20 16 23 16 12 24 -1 19 31 9 -3 9 10 25 1 -4 -11 21 15 5 14 -1 18 17 2 13 4 18 21 -2 25 -5 -1 5 -0 -18 8 3 17 3 6 -0 1 1 12 2 25
22 25 14 12 17 23 16 12 14 16 9 26 11 14 30 8 0 7 17 21 32 12 -14 20 16 2 17 10 8 12 14 13 18 27 7 -3 9 -1 18 -0 26 17 8 8 13 -3 1 -3 4 7 13 16 13 23
5 28 34 14 16 16 14 22 24 17 35 -6 23 1 30 7 7 9 11 33 9 -23 49 17 -49 74 18 22 9 9 -0 18 -4 11 24 12 2 16 16 -2 9 5 -5 27 7 13 14 9 6 15 16 16 22 17
11 8 3 34 39 24 29 8 27 12 9 29 27 19 15 10 7 7 11 -8 20 0 -24 9 24 39 11 27 30 9 7 -18 19 3 2 7 33 -28 24 22 26 14 10 5 2 -6 20 14 7 -1 26 18 13 13
7 18 7 14 6 8 10 5 6 11 4 4 10 4 1 8 17 17 6 36 6 -2 10 -3 41 10 44 20 19 31 16 16 -2 -5 28 17 10 7 3 -4 1 3 9 6 7 15 0 -5 25 15 13 16 13 11
20 13 3 9 15 12 11 8 8 7 11 12 11 16 24 21 22 22 3 16 13 0 4 -0 33 22 -5 19 43 6 15 14 23 -5 8 -6 6 16 10 19 12 8 20 6 4 5 4 16 18 11 6 18 15 10
28 34 13 15 16 13 16 16 21 17 19 16 14 9 2 7 29 12 -1 16 43 20 -9 3 10 18 24 23 19 -13 77 10 -0 17 -5 4 13 -9 16 17 5 15 14 9 9 6 -8 -1 5 3 2 5 16 12
13 15 31 28 23 18 18 16 13 7 10 6 4 12 28 -3 15 16 37 27 -5 -41 -11 14 4 6 14 15 11 -8 30 24 50 4 32 3 -0 9 4 -12 9 28 20 23 24 -18 -11 9 12 8 16 12 12 8
15 17 4 10 15 7 10 20 19 9 32 20 15 6 5 -1 3 6 -8 -15 12 15 36 7 2 11 7 13 26 9 15 29 11 36 -9 33 45 24 -3 0 19 13 1 22 32 30 25 28 19 11 1 27 27 19
14 10 16 2 10 13 4 12 22 -18 1 16 13 5 13 -5 -3 10 12 9 4 14 29 22 10 7 12 -1 1 11 5 16 10 26 8 29 19 18 19 25 24 8 -13 -0 4 2 -11 3 27 27 20 -1 -12 -4
15 31 32 11 6 4 15 18 -3 3 18 2 5 -48 20 8 9 12 16 17 7 17 4 15 14 -4 -5 7 12 12 13 12 20 -5 18 12 33 15 14 14 15 24 22 24 19 20 20 6 -23 6 22 7 -4 24
19 16 15 27 21 10 3 11 27 14 4 -13 7 20 -2 12 25 11 2 16 10 13 17 11 37 8 11 6 14 10 33 12 5 8 -2 22 30 32 24 25 19 17 10 4 3 9 11 21 21 33 38 58 32 23
10 12 11 3 -21 -3 -22 22 16 -19 -8 9 6 6 22 28 24 11 18 -18 34 30 16 11 -9 11 9 9 13 13 7 10 14 2 17 20 14 17 13 15 18 17 18 18 15 24 26 19 23 21 21 16 13 13
6 3 0 -7 -10 -7 20 9 -9 11 -7 9 21 13 17 27 27 32 36 37 18 7 12 -14 10 10 13 12 9 12 11 15 11 13 15 16 15 18 18 19 22 24 25 23 18 18 19 16 12 10 12 13 13 13
12 4 1 1 2 9 30 -10 11 22 14 19 20 24 27 24 6 21 20 18 15 9 -8 4 7 17 11 11 8 18 33 10 9 10 14 16 17 19 18 17 18 15 15 12 14 10 12 12 8 14 16 19 18 16
30 1 5 11 0 15 2 36 6 29 31 15 14 13 10 7 14 13 12 15 15 16 8 11 19 16 11 25 26 14 9 11 14 16 14 16 17 13 7 15 15 13 11 9 8 11 12 12 11 12 11 7 2 1
24 26 10 -5 8 35 46 30 4 11 18 16 11 13 19 19 15 12 10 13 12 18 12 -1 20 34 24 9 10 10 9 11 12 14 17 13 11 10 6 5 6 6 8 10 11 12 12 11 9 7 5 5 7 9
13 10 15 19 28 -12 -4 8 -1 21 8 10 14 16 17 12 18 19 14 9 7 8 37 42 9 11 8 9 7 5 6 5 7 7 7 7 6 5 5 5 7 9 8 7 6 6 6 6 6 7 7 7 9 8
10 11 -0 18 -33 13 7 31 4 -11 -7 6 11 14 13 13 17 21 29 33 31 49 4 8 9 9 9 11 10 7 4 5 7 7 0 8 6 8 10 9 11 11 11 12 11 11 10 10 10 9 9 8 9 9
20 43 42 35 18 7 22 17 15 27 23 2 -3 -2 3 12 15 23 16 19 16 3 -1 4 5 5 7 9 10 11 9 10 12 12 12 10 13 12 12 12 11 9 10 9 9 8 9 8 9 8 8 7 6 6
14 19 20 -6 -17 4 18 -1 -6 4 12 10 10 7 16 13 15 9 12 11 7 4 4 4 5 5 8 7 7 10 11 11 11 14 15 12 13 12 12 11 10 9 9 8 6 5 6 6 8 9 11 12 12 11
-8 -8 -8 6 20 29 5 19 7 6 14 12 14 14 13 9 13 15 9 7 6 3 4 5 5 6 7 7 7 8 9 9 7 7 7 7 6 6 6 6 8 8 9 10 11 12 11 10 9 8 8 9 11 13
0 9 15 2 5 21 1 12 16 14 7 13 14 12 14 16 20 18 6 3 6 6 6 7 7 8 7 7 7 7 6 6 6 6 7 9 10 12 12 11 11 11 10 9 9 8 9 10 12 14 14 14 14 13
3 12 23 24 13 -2 20 -3 6 4 6 9 10 7 5 3 13 21 7 7 8 8 7 6 6 7 6 6 5 6 7 8 10 12 12 13 13 13 10 9 8 8 9 10 12 13 14 15 15 14 13 13 15 19
20 31 26 25 20 8 16 10 8 5 2 4 7 4 8 12 11 12 12 9 9 8 6 5 5 5 4 6 8 10 10 11 13 12 11 8 7 7 7 8 11 12 13 13 14 14 13 14 13 13 16 17 17 16
21 10 6 8 10 12 8 10 4 -2 3 9 11 10 15 11 20 12 13 9 8 7 6 5 6 7 10 11 11 12 15 13 8 7 7 6 8 12 12 11 12 14 14 14 15 15 14 12 12 14 15 15 16 16
6 7 10 10 13 13 15 15 15 11 8 9 11 11 12 12 12 13 11 10 9 8 10 11 12 11 12 15 16 10 8 8 7 8 12 13 12 13 15 15 14 16 16 15 15 13 12 12 13 14 14 14 14 15
8 7 8 9 10 8 6 9 7 8 7 8 11 12 11 12 10 13 13 12 12 11 12 14 17 17 11 9 9 8 7 11 14 13 12 14 16 16 16 16 17 16 15 15 13 13 12 12 12 12 12 12 12 12
8 7 10 9 8 6 5 5 8 7 8 9 10 9 13 15 18 15 16 16 16 17 14 11 11 10 8 7 10 14 13 13 15 16 16 15 15 15 14 14 13 12 11 11 11 11 11 11 11 11 11 11 11 11
5 7 10 11 7 3 8 7 8 9 9 8 12 16 13 16 13 19 11 12 12 11 12 9 7 8 13 14 12 14 16 16 16 14 13 13 12 12 12 12 12 12 11 10 10 10 10 10 10 10 10 11 11 10
4 5 4 6 6 5 5 14 7 8 10 18 12 11 12 13 11 15 12 13 12 7 9 11 14 12 13 15 15 16 14 14 13 12 12 12 12 11 10 10 9 10 10 10 10 11 11 10 10 10 9 9 10 10
Height
2754 2746 2738 2731 2727 2727 2730 2737 2747 2760 2775 2789 2803 2816 2830 2846 2858 2869 2883 2894 2904 2913 2920 2927 2934 2941 2951 2962 2968 2975 2986 2991 2997 3000 3002 3004 3007 3009 3013 3016 3018 3020 3022 3024 3030 3031 3030 3031 3035 3037 3036 3036 3037 3036
2755 2748 2743 2738 2735 2732 2738 2746 2756 2767 2780 2793 2806 2819 2831 2845 2858 2871 2880 2889 2901 2913 2918 2924 2929 2935 2942 2957 2965 2965 2972 2979 2986 2993 2997 2999 3000 3004 3007 3010 3014 3018 3016 3019 3020 3020 3023 3024 3027 3030 3031 3031 3030 3029
2759 2753 2750 2747 2747 2748 2752 2758 2766 2776 2787 2799 2810 2823 2837 2848 2859 2870 2877 2889 2900 2912 2919 2923 2927 2934 2941 2946 2956 2962 2968 2972 2977 2986 2993 2995 2995 3000 3001 3004 3010 3008 3010 3012 3015 3015 3018 3020 3021 3023 3024 3024 3023 3022
2764 2760 2759 2758 2758 2760 2764 2770 2778 2786 2795 2805 2816 2829 2841 2851 2861 2870 2879 2889 2903 2912 2916 2920 2917 2926 2932 2940 2947 2954 2964 2969 2977 2981 2985 2989 2991 2994 2995 3000 2999 3003 3005 3006 3007 3009 3012 3014 3016 3017 3017 3016 3016 3015
2771 2767 2765 2766 2768 2770 2774 2779 2786 2794 2803 2812 2823 2834 2845 2853 2862 2873 2884 2894 2903 2913 2913 2917 2917 2920 2925 2930 2938 2947 2955 2962 2970 2975 2975 2980 2985 2990 2990 2993 2990 2994 2996 2998 2999 3005 3007 3010 3009 3009 3009 3009 3009 3009
2779 2778 2776 2777 2778 2780 2784 2790 2796 2804 2812 2822 2832 2841 2848 2856 2866 2877 2887 2895 2899 2908 2915 2916 2915 2915 2919 2927 2934 2940 2949 2957 2963 2968 2971 2974 2977 2983 2982 2978 2984 2987 2990 2994 2995 2998 3000 3001 3002 3001 3001 3001 3002 3003
2786 2786 2787 2787 2789 2793 2796 2801 2807 2814 2823 2831 2838 2845 2854 2863 2873 2881 2885 2893 2899 2907 2913 2915 2910 2912 2915 2923 2930 2938 2946 2950 2957 2963 2964 2969 2972 2974 2972 2970 2980 2981 2985 2986 2988 2991 2993 2994 2994 2995 2995 2996 2996 2997
2791 2793 2796 2798 2800 2804 2807 2812 2818 2824 2831 2838 2846 2855 2863 2869 2876 2883 2890 2897 2903 2909 2916 2913 2908 2912 2914 2911 2924 2932 2938 2946 2951 2955 2958 2962 2965 2966 2962 2966 2971 2975 2977 2980 2982 2984 2986 2987 2988 2988 2988 2990 2990 2991
2798 2799 2802 2805 2808 2812 2816 2820 2825 2831 2838 2844 2851 2858 2866 2873 2879 2884 2889 2895 2901 2913 2912 2910 2907 2909 2913 2917 2919 2925 2930 2939 2944 2946 2951 2958 2957 2955 2957 2963 2966 2968 2971 2974 2975 2976 2978 2978 2979 2980 2981 2982 2983 2984
2808 2808 2810 2812 2815 2819 2823 2827 2833 2839 2844 2850 2858 2864 2870 2874 2880 2885 2892 2898 2905 2906 2910 2908 2909 2911 2914 2915 2917 2925 2928 2933 2939 2942 2948 2947 2947 2950 2955 2957 2959 2961 2962 2964 2965 2967 2969 2971 2971 2972 2973 2974 2976 2977
2818 2819 2821 2823 2826 2828 2832 2836 2841 2847 2853 2858 2864 2868 2874 2877 2884 2890 2895 2900 2903 2904 2904 2906 2909 2913 2916 2918 2920 2924 2922 2929 2932 2937 2941 2941 2943 2945 2949 2952 2955 2957 2958 2958 2958 2959 2960 2961 2962 2963 2963 2965 2967 2968
2826 2828 2830 2833 2838 2842 2845 2849 2854 2859 2861 2867 2870 2874 2876 2883 2890 2892 2896 2899 2899 2901 2902 2905 2909 2912 2917 2920 2922 2924 2925 2926 2928 2931 2936 2936 2937 2938 2941 2944 2947 2949 2950 2952 2952 2952 2952 2953 2954 2955 2953 2955 2957 2958
2834 2833 2836 2841 2844 2848 2853 2858 2861 2866 2869 2875 2878 2881 2885 2889 2890 2890 2889 2890 2893 2898 2901 2903 2907 2912 2916 2918 2921 2922 2923 2925 2927 2928 2927 2929 2930 2931 2933 2935 2938 2940 2941 2942 2943 2943 2943 2945 2945 2945 2948 2946 2948 2948
2843 2843 2845 2849 2853 2857 2860 2864 2869 2871 2876 2879 2883 2885 2885 2887 2888 2888 2890 2892 2894 2896 2900 2904 2907 2911 2913 2915 2917 2918 2920 2922 2923 2925 2927 2927 2925 2925 2927 2928 2930 2930 2931 2932 2933 2935 2937 2936 2937 2938 2937 2936 2939 2943
2854 2854 2856 2859 2862 2865 2869 2873 2875 2879 2880 2881 2883 2884 2884 2884 2885 2886 2890 2890 2892 2897 2901 2905 2908 2910 2911 2912 2912 2916 2918 2920 2924 2928 2926 2925 2924 2924 2924 2924 2925 2925 2925 2926 2928 2929 2929 2931 2934 2935 2936 2936 2938 2941
2861 2863 2865 2867 2869 2872 2875 2878 2881 2883 2882 2883 2882 2883 2883 2883 2883 2884 2886 2888 2893 2897 2901 2904 2905 2908 2910 2911 2912 2915 2919 2924 2928 2927 2926 2925 2925 2924 2924 2924 2925 2925 2926 2927 2928 2929 2930 2931 2933 2934 2935 2936 2938 2939
2865 2867 2868 2871 2875 2876 2878 2881 2882 2882 2882 2884 2885 2884 2884 2884 2883 2883 2885 2888 2892 2897 2899 2902 2904 2907 2910 2911 2915 2918 2922 2926 2927 2928 2928 2927 2926 2925 2926 2927 2927 2928 2929 2930 2930 2931 2932 2933 2934 2935 2936 2937 2938 2940
2868 2870 2872 2875 2878 2880 2881 2882 2882 2886 2889 2892 2890 2888 2886 2886 2887 2888 2890 2893 2896 2897 2899 2901 2904 2907 2911 2916 2920 2923 2925 2927 2928 2929 2929 2929 2929 2929 2930 2931 2931 2932 2932 2932 2932 2932 2933 2934 2935 2936 2937 2937 2938 2938
2872 2874 2876 2878 2879 2880 2883 2884 2888 2892 2894 2893 2892 2891 2891 2892 2893 2894 2895 2897 2899 2900 2901 2902 2907 2912 2917 2921 2924 2926 2929 2930 2931 2931 2932 2932 2932 2933 2934 2935 2935 2935 2935 2935 2935 2935 2935 2935 2936 2936 2936 2936 2936 2935
2875 2877 2879 2881 2882 2881 2884 2891 2892 2895 2898 2899 2899 2898 2897 2896 2896 2897 2898 2899 2900 2902 2902 2909 2915 2920 2923 2925 2928 2930 2932 2933 2934 2935 2935 2936 2936 2936 2937 2937 2937 2937 2936 2936 2935 2935 2935 2935 2934 2934 2933 2933 2932 2931
2880 2881 2882 2883 2884 2886 2888 2893 2897 2901 2903 2904 2904 2903 2902 2904 2903 2902 2902 2904 2904 2904 2911 2919 2924 2926 2929 2931 2933 2934 2934 2935 2936 2937 2936 2937 2936 2936 2937 2937 2936 2935 2935 2935 2934 2933 2933 2932 2932 2931 2930 2929 2927 2926
2882 2883 2884 2886 2886 2889 2895 2900 2902 2904 2908 2910 2912 2911 2912 2912 2912 2911 2912 2908 2910 2917 2922 2927 2930 2932 2934 2935 2936 2936 2937 2938 2938 2937 2937 2937 2936 2936 2936 2936 2935 2934 2934 2933 2932 2931 2930 2930 2928 2927 2925 2923 2921 2919
2887 2890 2891 2891 2893 2899 2906 2906 2909 2909 2913 2915 2916 2916 2917 2917 2917 2919 2918 2919 2923 2926 2930 2932 2934 2936 2937 2937 2938 2939 2939 2939 2939 2939 2939 2938 2938 2938 2937 2935 2934 2933 2932 2932 2930 2928 2926 2925 2923 2921 2918 2916 2913 2910
2894 2896 2896 2898 2901 2905 2909 2911 2912 2914 2916 2918 2918 2920 2921 2922 2924 2924 2925 2927 2930 2932 2933 2935 2936 2937 2938 2938 2938 2939 2939 2939 2938 2938 2938 2937 2936 2935 2934 2932 2931 2930 2929 2927 2925 2923 2921 2919 2917 2914 2910 2907 2903 2900
2899 2900 2903 2904 2906 2910 2912 2914 2916 2917 2919 2920 2921 2922 2924 2926 2927 2928 2930 2931 2932 2934 2935 2936 2937 2937 2938 2939 2939 2939 2939 2938 2937 2936 2935 2934 2933 2932 2930 2928 2927 2925 2924 2922 2919 2917 2914 2911 2908 2905 2901 2898 2894 2889
2899 2902 2905 2907 2910 2912 2914 2917 2919 2921 2922 2923 2925 2927 2927 2928 2929 2931 2932 2933 2934 2935 2936 2937 2937 2937 2938 2937 2937 2937 2936 2935 2934 2933 2931 2930 2928 2927 2925 2924 2922 2920 2917 2915 2912 2909 2906 2903 2900 2896 2893 2889 2885 2880
2902 2906 2908 2910 2912 2915 2918 2921 2923 2924 2925 2927 2929 2929 2930 2931 2931 2933 2933 2934 2935 2935 2936 2936 2936 2936 2936 2935 2934 2933 2932 2931 2930 2928 2927 2925 2924 2922 2920 2918 2916 2914 2911 2908 2905 2903 2899 2896 2893 2889 2885 2880 2876 2871
2906 2911 2913 2916 2918 2921 2922 2925 2927 2928 2929 2931 2931 2931 2932 2933 2934 2934 2934 2934 2934 2934 2934 2934 2934 2933 2932 2932 2931 2930 2929 2928 2927 2925 2923 2922 2920 2918 2915 2913 2910 2908 2905 2902 2899 2896 2893 2890 2887 2883 2879 2875 2871 2867
2911 2915 2919 2921 2923 2925 2927 2928 2929 2931 2932 2932 2932 2932 2933 2932 2933 2932 2933 2932 2932 2932 2932 2931 2931 2930 2929 2928 2928 2927 2926 2924 2923 2921 2919 2916 2914 2912 2910 2907 2904 2902 2899 2896 2894 2892 2889 2886 2883 2879 2876 2872 2868 2863
2917 2920 2923 2925 2926 2927 2929 2930 2931 2932 2932 2932 2932 2932 2932 2931 2931 2931 2930 2930 2929 2929 2929 2928 2928 2927 2927 2926 2925 2924 2923 2921 2919 2918 2916 2914 2911 2909 2906 2904 2901 2899 2896 2894 2891 2889 2886 2883 2879 2876 2872 2868 2864 2859
2921 2924 2926 2927 2927 2929 2930 2931 2931 2931 2932 2932 2931 2931 2931 2930 2929 2928 2928 2927 2927 2927 2927 2926 2926 2925 2924 2923 2922 2921 2919 2918 2916 2914 2912 2910 2908 2906 2904 2902 2900 2897 2895 2892 2889 2887 2884 2880 2877 2873 2869 2865 2861 2857
2925 2927 2928 2928 2929 2930 2931 2931 2931 2931 2930 2930 2930 2929 2928 2927 2927 2927 2926 2926 2925 2925 2925 2924 2923 2922 2921 2920 2919 2917 2916 2914 2912 2910 2909 2907 2905 2904 2902 2900 2897 2895 2893 2890 2887 2884 2880 2877 2873 2869 2866 2861 2857 2853
2927 2928 2929 2929 2929 2930 2930 2931 2930 2929 2928 2927 2927 2927 2926 2926 2925 2925 2924 2923 2923 2923 2922 2921 2920 2919 2918 2917 2915 2914 2912 2911 2910 2908 2907 2905 2903 2901 2899 2897 2895 2892 2889 2886 2883 2880 2876 2873 2869 2865 2861 2857 2853 2849